Regional Weather Roundup
Issued by NWS

Home | Current Version | Previous Version | Text Only | Print | Product List | Glossary Off
Versions: 1 2 3 4 5 6 7 8 9 10 11 12 13 14 15 16 17 18 19 20 21 22 23 24 25 26 27 28

000
ASUS45 KSLC 250710
RWRUT

UTAH REGIONAL WEATHER ROUNDUP
NATIONAL WEATHER SERVICE SALT LAKE CITY UT
100 AM MDT FRI MAY 25 2018

UTZ001>011-023>025-250800-

NORTHERN UTAH

CITY           SKY/WX    TMP DP  RH WIND       PRES   REMARKS
BRIGHAM CITY   CLEAR     61  47  60 W3        30.02S
HILL AFB       CLEAR     64  40  42 E17       30.04S
LOGAN          CLEAR     56  45  66 N5        30.06F
OGDEN          CLEAR     62  41  46 S8        30.01F
SALT LAKE CITY CLEAR     68  41  37 SE8       30.00
TOOELE VALLEY  CLEAR     55  43  62 S10       30.02S
WENDOVER       CLEAR     71  42  35 N9        30.00R
HEBER CITY       N/A     45  36  70 CALM      30.12R
WEST JORDAN    CLEAR     60  44  55 SW5       30.04S

$$

UTZ011>015-024>027-250800-

CENTRAL/NORTHEAST UTAH

CITY           SKY/WX    TMP DP  RH WIND       PRES   REMARKS
PROVO AIRPORT  CLEAR     59  49  69 MISG      30.04R
MOAB/CANYONLAN CLEAR     62  26  25 CALM      30.01S
DELTA          CLEAR     52  34  50 S8        30.04S
PRICE          CLEAR     58  24  27 NE13      30.11S
ROOSEVELT      CLEAR     52  37  58 SW7       30.10R
VERNAL         CLEAR     60  36  40 W6        30.09S

$$

UTZ013>016-019>022-027-250800-

SOUTHERN UTAH

CITY           SKY/WX    TMP DP  RH WIND       PRES   REMARKS
BRYCE CANYON   CLEAR     43  19  38 W8        30.25S
CEDAR CITY     CLEAR     58  25  28 SE7       30.12R
MILFORD        CLEAR     57  24  28 SW6       30.07R
ST GEORGE      MOSUNNY   72  27  18 SE7       29.99R
HANKSVILLE     CLEAR     61  14  16 CALM      30.03S
BLANDING         N/A     54  17  22 N10       30.21S

$$

REGIONAL REPORTS     COLORADO/ARIZONA

CITY           SKY/WX    TMP DP  RH WIND       PRES   REMARKS
CRAIG, CO      CLEAR     45  38  76 CALM      30.18S
GRAND JUNCTION CLEAR     63  24  22 E3        30.06S
RIFLE, CO      CLEAR     56  27  32 CALM      30.15R
MONTROSE, CO   NOT AVBL
CORTEZ, CO     CLEAR     46  25  43 E6        30.17S
COLORADO CITY    N/A     52  28  40 CALM      30.14R
PAGE, AZ       CLEAR     77  21  12 W7        30.01R
GRAND CANYON   CLEAR     46  16  30 NE7       30.26R
KINGMAN, AZ    CLEAR     70  33  25 S12       30.04R
FLAGSTAFF, AZ  CLEAR     46  21  37 NW3       30.27S

$$

REGIONAL REPORTS    NEVADA/IDAHO/WYOMING

CITY           SKY/WX    TMP DP  RH WIND       PRES   REMARKS
LAS VEGAS, NV  CLEAR     80  29  15 S9        29.90S
ELY, NY        CLEAR     53  26  35 S12       30.12S
ELKO, NV       CLEAR     61  45  55 E7        30.00F
POCATELLO, ID  CLEAR     54  48  80 CALM      30.07S
BURLEY, ID     CLEAR     58  51  78 CALM      30.02F
FORT BRIDGER,    N/A     53  39  59 E6        30.26S
EVANSTON, WY   PTCLDY    55  38  52 E6        30.22F
ROCK SPRINGS,  CLEAR     52  38  58 NW5       30.20F

$$




USA.gov is the U.S. government's official web portal to all federal, state and local government web resources and services.